Home > Weather > French Lick > Past weeks

Flag for U.S.A. Weather for the Past 2 Weeks in French Lick, Indiana, U.S.A.

Now
21 °F

Overcast.


Feels Like: 8 °F
Forecast: 14 / 23 °F
Wind: 15 mph from West

Location: Huntingburg Airport

Current Time: Feb 10, 2016 at 5:47:13 PM

Latest Report: Feb 10, 2016 at 4:55 PM


Visibility: 10 mi

Pressure: 30.13 "Hg

Humidity: 58%

Dew point: 9 °F

Location of French LickLocation

Historic Weather in French Lick — Graph

°F

French Lick Temperature Yesterday

Maximum temperature yesterday: 23 °F (at 11:55 AM)
Minimum temperature yesterday: 19 °F (at 6:35 AM)
Average temperature yesterday: 21 °F

High & Low Weather Summary for the Past Weeks

 TemperatureHumidityPressure
High64 °F (Jan 30, 4:15 PM)88% (Feb 2, 8:15 PM)30.44 "Hg (Feb 2, 8:15 PM)
Low12 °F (Feb 10, 8:15 AM)36% (Feb 7, 4:15 PM)29.55 "Hg (Feb 2, 11:15 PM)
Average38 °F67%30.02 "Hg
* Reported Jan 26 3:15 PM — Feb 10 3:55 PM, French Lick, Weather by CustomWeather, © 2016

Note: Actual official high and low records may vary slightly from our data, if they occured in-between our weather recording intervals... More about our weather records

Advertising

French Lick Weather History for the Previous 24 Hours

 ConditionsComfort  
Time TempWeatherWind HumidityBarometerVisibility
3:55 PM
Wed, Feb 10
21 °FPartly sunny.9 mph58%30.12 "Hg10 mi
3:35 PM21 °FPartly sunny.15 mph63%30.12 "Hg10 mi
3:15 PM21 °FScattered clouds.13 mph58%30.12 "Hg10 mi
2:55 PM21 °FScattered clouds.16 mph58%30.12 "Hg10 mi
2:35 PM21 °FPartly sunny.13 mph58%30.12 "Hg10 mi
2:15 PM21 °FScattered clouds.9 mph58%30.12 "Hg10 mi
1:55 PM21 °FPassing clouds.12 mph58%30.13 "Hg10 mi
1:35 PM21 °FPassing clouds.12 mph58%30.13 "Hg10 mi
1:15 PM21 °FPassing clouds.10 mph58%30.14 "Hg10 mi
12:55 PM19 °FPassing clouds.10 mph58%30.15 "Hg10 mi
12:35 PM21 °FPartly sunny.13 mph58%30.15 "Hg10 mi
12:15 PM19 °FPartly sunny.13 mph63%30.16 "Hg10 mi
11:55 AM19 °FPartly sunny.12 mph63%30.17 "Hg10 mi
11:35 AM18 °FPartly sunny.13 mph62%30.18 "Hg10 mi
11:15 AM18 °FMostly cloudy.13 mph68%30.17 "Hg10 mi
10:55 AM18 °FMostly cloudy.14 mph62%30.17 "Hg10 mi
10:35 AM16 °FMostly cloudy.13 mph67%30.17 "Hg10 mi
10:15 AM16 °FMostly cloudy.15 mph67%30.16 "Hg10 mi
9:55 AM16 °FMostly cloudy.14 mph67%30.16 "Hg9 mi
9:35 AM16 °FPartly sunny.14 mph67%30.15 "Hg10 mi
9:15 AM16 °FPartly sunny.16 mph67%30.14 "Hg10 mi
8:55 AM14 °FPartly sunny.9 mph67%30.13 "Hg10 mi
8:35 AM14 °FScattered clouds.12 mph67%30.13 "Hg10 mi
8:15 AM12 °FScattered clouds.14 mph67%30.12 "Hg10 mi
7:55 AM14 °FOvercast.12 mph62%30.11 "Hg10 mi
7:35 AM14 °FOvercast.14 mph62%30.11 "Hg10 mi
7:15 AM16 °FOvercast.16 mph57%30.10 "Hg10 mi
6:55 AM16 °FOvercast.20 mph62%30.10 "Hg10 mi
6:35 AM16 °FOvercast.12 mph67%30.11 "Hg10 mi
6:15 AM16 °FOvercast.17 mph67%30.10 "Hg10 mi
5:55 AM16 °FOvercast.15 mph62%30.09 "Hg10 mi
5:35 AM16 °FOvercast.16 mph67%30.08 "Hg10 mi
5:15 AM16 °FOvercast.18 mph67%30.08 "Hg10 mi
4:55 AM16 °FOvercast.16 mph67%30.07 "Hg10 mi
4:35 AM16 °FOvercast.16 mph67%30.06 "Hg10 mi
4:15 AM18 °FOvercast.15 mph62%30.06 "Hg10 mi
3:55 AM18 °FOvercast.18 mph68%30.06 "Hg10 mi
3:35 AM18 °FOvercast.15 mph68%30.05 "Hg10 mi
3:15 AM18 °FOvercast.13 mph68%30.04 "Hg10 mi
2:55 AM18 °FOvercast.12 mph73%30.04 "Hg10 mi
2:35 AM18 °FOvercast.13 mph73%30.04 "Hg10 mi
2:15 AM18 °FOvercast.9 mph73%30.04 "Hg10 mi
1:55 AM18 °FOvercast.9 mph79%30.04 "Hg9 mi
1:35 AM18 °FMostly cloudy.12 mph79%30.04 "Hg5 mi
1:15 AM18 °FOvercast.10 mph73%30.04 "Hg9 mi
12:55 AM19 °FOvercast.13 mph68%30.05 "Hg8 mi
12:15 AM19 °FMostly cloudy.15 mph68%30.04 "Hg10 mi
11:55 PM
Tue, Feb 9
19 °FOvercast.14 mph68%30.04 "Hg10 mi
11:35 PM19 °FPartly cloudy.14 mph73%30.04 "Hg7 mi
10:55 PM19 °FOvercast.10 mph68%30.04 "Hg10 mi
10:35 PM19 °FOvercast.10 mph68%30.05 "Hg7 mi
9:55 PM19 °FOvercast.16 mph68%30.05 "Hg10 mi
9:35 PM19 °FOvercast.17 mph68%30.04 "Hg10 mi
9:15 PM19 °FOvercast.14 mph68%30.04 "Hg10 mi
8:35 PM19 °FPartly cloudy.16 mph73%30.04 "Hg10 mi
7:55 PM19 °FPartly cloudy.14 mph73%30.03 "Hg9 mi
7:35 PM19 °FMostly cloudy.10 mph73%30.03 "Hg10 mi
7:15 PM19 °FPartly cloudy.16 mph73%30.03 "Hg10 mi
6:55 PM19 °FPartly cloudy.9 mph86%30.02 "Hg5 mi
6:35 PM19 °FMostly cloudy.10 mph86%30.01 "Hg2 mi
6:15 PM21 °FCloudy.10 mph74%30.01 "Hg2 mi
5:55 PM21 °FMostly cloudy.16 mph74%30.00 "Hg4 mi
5:15 PM21 °FBroken clouds.17 mph68%29.99 "Hg4 mi
Weather by CustomWeather, © 2016

See weather overviewHow to use our weather pages